Location: Oberkirch
(48.5323°N, 8.0787°E)
Time: 00:41:29
(UTC+00:00)

Tiros 1 - Pass Details

Date: 16 February 2026
Orbit: 618 x 649 km, 48.4° (Epoch: 9 March)

Event Time Altitude Azimuth Distance (km) Brightness Sun altitude
Rises 12:43:37 0° 280° (W) 2,895 10.6 27.7°
Reaches altitude 10° 12:45:56 10° 279° (W) 1,985 9.9 27.6°
Maximum altitude 12:50:28 73° 195° (SSW) 649 8.0 27.4°
Drops below altitude 10° 12:55:00 10° 111° (ESE) 1,978 9.7 27.1°
Sets 12:57:18 0° 110° (ESE) 2,883 10.5 27.0°
